#timestamp,LO_Frequency,Hit,StdDev 
1635480015.2,286046999.3,N
1635480035.0,286046998.8,N
1635480035.9,286046998.8,N
1635480055.8,286046998.4,N
1635480075.6,286046998.6,N
1635480095.5,286046999.1,N
1635480115.3,286046996.9,N
1635480135.1,286046996.7,N
1635480155.9,286046999.3,N
1635480175.7,286046998.7,N
1635480195.5,286046998.3,N
1635480215.4,286046999.5,N
1635480235.2,286046999.2,N
1635480255.1,286046999.3,N
1635480256.0,286046999.3,N
1635480275.8,286046997.0,N
1635480295.6,286046999.1,N
1635480315.5,286046998.1,N
1635480335.3,286046998.5,N
1635480355.1,286046998.5,N
1635480375.9,286046998.7,N
1635480395.7,286046998.2,N
1635480415.6,286046999.0,N
1635480435.4,286046998.5,N
1635480455.2,286046998.2,N
1635480475.1,286046998.3,N
1635480476.0,286046998.3,N
1635480495.8,286047001.0,N
1635480515.7,286047001.0,N
1635480535.5,286046998.2,N
1635480555.3,286047000.3,N
1635480575.2,286046999.8,N
1635480595.0,286047000.1,N
1635480595.9,286047000.1,N
1635480615.8,286046998.3,N
1635480635.6,286046998.1,N
1635480655.4,286047000.7,N
1635480675.3,286047001.0,N
1635480695.1,286046998.7,N
1635480715.8,286046998.9,N
1635480735.7,286047000.7,N
1635480755.5,286046999.7,N
1635480775.4,286047002.1,N
1635480795.2,286047000.3,N
1635480815.0,286047000.6,N
1635480815.9,286047000.6,N
1635480835.8,286047000.6,N
1635480855.6,286047000.7,N
1635480875.5,286047000.2,N
1635480895.3,286047000.4,N
1635480915.1,286047002.5,N
1635480935.9,286047002.0,N
1635480955.7,286047002.4,N
1635480975.6,286047001.8,N
1635480995.4,286047002.3,N
1635481015.2,286047002.3,N
1635481035.1,286047000.6,N
1635481055.8,286046998.1,N
1635481075.7,286047000.7,N
1635481095.5,286047000.7,N
1635481115.4,286047000.7,N
1635481135.2,286046998.1,N
1635481155.0,286046998.7,N
1635481156.0,286046998.7,N
1635481175.8,286046998.4,N
1635481195.6,286046998.6,N
1635481215.5,286046999.4,N
1635481235.3,286046997.4,N
1635481255.1,286046997.7,N
1635481275.9,286046997.0,N
1635481295.7,286046996.8,N
1635481315.6,286046997.9,N
1635481335.4,286046997.0,N
1635481355.2,286046996.6,N
1635481375.1,286046997.2,N
1635481376.0,286046997.2,N
1635481395.8,286046995.0,N
1635481415.6,286046995.1,N
1635481435.5,286046996.4,N
1635481455.3,286046996.0,N
1635481475.2,286046996.2,N
1635481495.9,286046997.4,N
1635481515.7,286046995.0,N
1635481535.6,286046998.0,N
1635481555.4,286046995.1,N
1635481575.2,286046995.4,N
1635481595.1,286046995.9,N
1635481596.0,286046995.9,N
1635481615.8,286046997.9,N
1635481635.7,286046995.2,Y
1635481655.5,286046999.4,P
1635481675.3,286046999.5,N
1635481695.2,286046997.5,N
1635481715.0,286046995.3,Y
1635481715.9,286046995.3,P
1635481735.8,286046998.4,N
1635481755.6,286047001.1,N
1635481775.4,286047001.1,N
1635481795.3,286046999.3,N
1635481815.1,286046999.1,N
1635481835.9,286046999.0,N
1635481855.7,286046999.6,N
1635481875.5,286046996.7,N
1635481895.4,286046997.2,N
1635481915.2,286046999.1,N
1635481935.1,286046999.4,N
1635481936.0,286046999.4,N
1635481955.8,286046999.6,N
1635481975.6,286046998.9,N
1635481995.5,286047000.4,N
1635482015.3,286047000.6,N
1635482035.1,286047000.7,N
1635482055.9,286046998.5,N
1635482075.7,286046998.4,N
1635482095.6,286046999.3,N
1635482115.4,286046996.8,N
1635482135.2,286046999.1,N
1635482155.1,286046996.7,N
1635482156.0,286046996.7,N
1635482175.8,286046999.5,N
1635482195.7,286046997.4,N
1635482215.5,286046996.8,N
1635482235.3,286046997.8,N
1635482255.2,286046996.9,N
1635482275.0,286046997.2,N
1635482275.9,286046997.2,N
1635482295.7,286046998.2,N
1635482315.6,286046998.8,N
1635482335.4,286046999.5,N
1635482355.3,286046999.3,N
1635482375.1,286046998.8,N
1635482376.0,286046998.8,N
1635482395.8,286046998.4,N
1635482415.7,286047000.9,N
1635482435.5,286046999.3,N
1635482455.3,286046999.5,N
1635482475.2,286046996.6,N
1635482495.0,286046996.7,N
1635482495.9,286046996.7,N
1635482515.8,286046997.1,N
1635482535.6,286046999.1,N
1635482555.4,286046997.8,N
1635482575.3,286046997.3,N
1635482595.1,286046997.6,N
1635482615.9,286046997.5,N
1635482635.7,286046997.7,N
1635482655.5,286046994.9,Y
1635482675.4,286046996.5,P
1635482695.2,286046998.9,N
1635482715.0,286046998.5,N
1635482716.0,286046998.5,N
1635482735.8,286046999.4,N
1635482755.6,286046998.5,N
1635482775.5,286046998.8,N
1635482795.3,286046999.1,N
1635482815.1,286046999.0,N
1635482835.9,286046999.4,N
1635482855.7,286046998.7,N
1635482875.6,286046999.0,N
1635482895.4,286046999.4,N
1635482915.2,286046999.6,N
1635482935.1,286046997.1,Y
1635482936.0,286046997.1,P
1635482955.8,286046998.5,N
1635482975.6,286046999.3,N
1635482995.5,286046999.3,N
1635483015.3,286046998.1,N
1635483035.2,286046998.6,N
1635483055.9,286047001.1,N
1635483075.7,286047000.8,N
1635483095.6,286046998.1,N
1635483115.4,286047001.1,N
1635483135.3,286047000.2,N
1635483155.1,286047000.7,N
1635483156.0,286047000.7,N
1635483175.8,286047000.7,N
1635483195.7,286047002.8,N
1635483215.5,286047002.6,N
1635483235.3,286047002.2,N
1635483255.2,286047002.7,N
1635483275.0,286047002.6,N
1635483275.9,286047002.6,N
1635483295.8,286047002.1,N
1635483315.6,286047000.3,N
1635483335.4,286046999.8,N
1635483355.3,286047000.3,N
1635483375.1,286047000.7,N
1635483395.9,286046999.5,N
1635483415.7,286046996.5,N
1635483435.5,286046998.5,N
1635483455.4,286046998.3,N
1635483475.2,286047001.2,N
1635483495.0,286047000.0,N
1635483495.9,286047000.0,N
1635483515.8,286047000.6,N
1635483535.6,286047001.1,N
1635483555.5,286046998.3,N
1635483575.3,286046998.9,N
1635483595.1,286046999.5,N
